sat.trackr.live / text

‹ back to catalog

STARLINK-5816

NORAD 55778 · 2023-028AP

PAYLOAD ACTIVE UNKNOWN

§ Identity

Operator
Country
US
Launch date
2023-03-03
Launch site
AFWTR
Launch vehicle
Mass (kg)
RCS (m²)

Purposes: comms

External: N2YO · Heavens-Above · Gunter

§ Orbital elements

Epoch: 2026-09-20T22:36:49.742496Z

Period
96.11 min
Inclination
69.9974°
Eccentricity
0.0003393
Mean motion
14.98340345 rev/d
Perigee alt
569.7 km
Apogee alt
574.4 km
Semi-major
6,950.2 km
B*
1.0006e-5
RAAN
92.0132°
Arg perigee
272.2195°
Mean anomaly
87.8575°
Rev number
19,578

§ Raw data

STARLINK-58161 55778U 23028AP  26263.94224239  .00000026  00000+0  10006-4 0  99992 55778  69.9974  92.0132 0003393 272.2195  87.8575 14.98340345195782

JSON: /api/v1/satellites/55778 · /tle

For live sub-satellite position, see the globe view (requires WebGL).

§ Visibility from observer

Set your observer location to see the next 7 days of passes ≥ 10°. The values pass through the URL so the page stays shareable.

No JS? Fill the form by hand. The geolocation button needs JavaScript.